Regional Weather Roundup
Issued by NWS

Home | Current Version | Previous Version | Text Only | Print | Product List | Glossary Off
Versions: 1 2 3 4 5 6 7 8 9 10 11 12 13 14 15 16 17 18 19 20 21 22 23 24 25 26 27 28 29 30 31 32 33 34 35 36 37 38 39 40 41 42 43 44 45 46 47 48 49 50

000
ASUS43 KDTX 241010
RWRMI
MICHIGAN HOURLY REGIONAL WEATHER ROUNDUP
NATIONAL WEATHER SERVICE DETROIT/PONTIAC MI
600 AM EDT FRI MAR 24 2017

NOTE: "FAIR" INDICATES FEW OR NO CLOUDS BELOW 12,000 FEET WITH NO
SIGNIFICANT WEATHER AND/OR OBSTRUCTION TO VISIBILITY.

MIZ047>049-052>055-059>063-066>070-074>076-081>083-241100-
SOUTHEAST LOWER MICHIGAN

CITY           SKY/WX    TMP DP  RH WIND       PRES   REMARKS
ADRIAN         MOCLDY    41  38  89 SW8       30.03F
ALMA           MOCLDY    38  37  97 S5        29.94F WCI  34
ANN ARBOR      PTCLDY    40  37  89 S8        30.02S WCI  34
BAD AXE        CLOUDY    36  32  85 S5        29.97F WCI  32
CARO           CLOUDY    39  34  83 CALM      29.96F
DETROIT CITY   CLOUDY    45  36  70 SW15G23   30.02R
DETROIT        CLOUDY    43  37  79 S9        30.04R
FLINT          CLOUDY    46  37  71 SW9       29.97F
GROSSE ILE     CLOUDY    40  37  87 S9        30.03R WCI  34
HILLSDALE      MOCLDY    43  36  75 S8        30.00S
HOWELL         MOCLDY    44  36  72 SW8       29.98F

CITY           SKY/WX    TMP DP  RH WIND       PRES   REMARKS
JACKSON        CLOUDY    46  37  71 S7        29.99F
LAMBERTVILLE   MOCLDY    46  38  72 S9        30.04R
LANSING        CLOUDY    44  35  70 S8        29.96F
LAPEER         MOCLDY    45  37  72 SW7       29.98F
MASON          CLOUDY    40  37  87 CALM      29.97F
MONROE         PTCLDY    42  38  85 S7        30.03R
MT. CLEMENS    CLOUDY    42  42  97 SW5       30.00S
PONTIAC        MOCLDY    45  37  73 SW12      29.99S
PORT HOPE        N/A     34  32  92 E5        29.97F WCI  30
PORT HURON     CLOUDY    41  36  81 S8        30.02S
TRI CITIES     LGT RAIN  39  37  92 S8        29.94F WCI  33
MIDLAND        MOCLDY    39  33  78 S3        29.92F
TROY           CLOUDY    43  38  83 SW7       30.02F
SAGINAW HB     LGT RAIN  39  34  81 S7        29.95F WCI  34
$$
MIZ043>046-050>051-056>058-064>065-071>073-077>080-241100-
SOUTHWEST LOWER MICHIGAN

CITY           SKY/WX    TMP DP  RH WIND       PRES   REMARKS
BATTLE CREEK   CLOUDY    47  38  71 S13       29.97F
BENTON HARBOR  PTCLDY    51  37  58 S10       29.94F
BIG RAPIDS     CLOUDY    38  36  92 SE3       29.91S
COLDWATER      PTCLDY    48  37  66 S9        29.99S
FREMONT        CLOUDY    41  38  87 S3        29.92S
HOLLAND        PTCLDY    45  37  73 S6        29.92F
GRAND RAPIDS   CLOUDY    43  36  76 S7        29.93F
IONIA          FAIR      41  35  79 S5        29.94F
KALAMAZOO      CLOUDY    46  37  71 S10       29.96F
LUDINGTON      CLOUDY    44  36  73 S8        29.90S
MARSHALL       PTCLDY    50  39  65 S12       29.97F
MOUNT PLEASANT CLOUDY    38  35  89 S5        29.92F WCI  34
MUSKEGON       MOCLDY    49  35  58 S12G20    29.92F
SOUTH HAVEN    CLOUDY    51  38  62 S9G18     29.93F
$$
MIZ016>042-241100-
NORTHERN LOWER MICHIGAN

CITY           SKY/WX    TMP DP  RH WIND       PRES   REMARKS
ALPENA         CLOUDY    32  32 100 SE9       29.97F WCI  24
BEAVER ISLAND  MIX PCPN  32  32  99 SE5       29.91F WCI  28
BELLAIRE       CLOUDY    34  33  95 CALM      29.92F FOG
CADILLAC       MOCLDY    37  34  90 CALM      29.90R
CHARLEVOIX     LGT RAIN  33  33 100 S3        29.95S
FRANKFORT      RAIN      41  35  80 SW5       29.91S
GAYLORD        FRZ RAIN  34  29  82 S5        29.91F WCI  30
GRAYLING       CLOUDY    32  32 100 CALM      29.93F
HARBOR SPRINGS LGT RAIN  32  32 100 E3        29.92F
HOUGHTON LAKE  CLOUDY    37  32  82 CALM      29.93S
MANISTEE       CLOUDY    38  36  92 CALM      29.91R
OSCODA         MIX PCPN  35  33  92 E5        29.95F WCI  31
PELLSTON       FRZ RAIN  32  30  92 S7        29.93F WCI  26
ROGERS CITY    MIX PCPN  33  31  93 S7        29.94F WCI  27
TRAVERSE CITY  CLOUDY    36  34  92 CALM      29.91F
$$
MIZ007>008-015-241100-
EASTERN UPPER MICHIGAN

CITY           SKY/WX    TMP DP  RH WIND       PRES   REMARKS
KINROSS        MIX PCPN  31  30  96 SE9       29.91F WCI  23
MACKINAC ISLAN CLOUDY    31  31 100 S7        29.91F WCI  24
NEWBERRY       CLOUDY    31  30  97 S3        29.90R
S. S. MARIE    CLOUDY    33  30  88 SE5       29.91F FOG     WCI  29
MUNISING         N/A     33  33 100 CALM      29.90R
$$
MIZ004>006-011>014-085-241100-
CENTRAL UPPER MICHIGAN

CITY           SKY/WX    TMP DP  RH WIND       PRES   REMARKS
MANISTIQUE     CLOUDY    32  32 100 S6        29.90S WCI  26
ESCANABA       LGT RAIN  34  34 100 CALM      29.90F FOG
MENOMINEE        N/A    N/A N/A N/A MISG        N/A
SAWYER-GWINN   LGT SNOW  32  31  98 CALM      29.89R
$$
MIZ001>003-009>011-084-241100-
WESTERN UPPER MICHIGAN

CITY           SKY/WX    TMP DP  RH WIND       PRES   REMARKS
IRON MOUNTAIN  MIX PCPN  32  29  88 CALM      29.89R FOG
HOUGHTON       FRZ RAIN  33  30  88 NW6       29.87F FOG     WCI  28
COPPER HARBOR    N/A     33  31  92 SW5       29.89S WCI  29
IRONWOOD       CLOUDY    32  32 100 CALM      29.88F FOG
$$

ABBREVIATIONS USED IN REMARKS
   TC - TEMPERATURE IN CELSIUS
  WCI - WIND CHILL INDEX
   HX - HEAT INDEX
  VSB - VISIBILITY




USA.gov is the U.S. government's official web portal to all federal, state and local government web resources and services.